Regional Weather Roundup
Issued by NWS

Home | Current Version | Previous Version | Text Only | Print | Product List | Glossary Off
Versions: 1 2 3 4 5 6 7 8 9 10 11 12 13 14 15 16 17 18 19 20 21 22 23 24 25 26 27 28 29 30 31 32 33 34 35 36 37 38 39 40 41 42 43 44 45 46 47 48 49 50

801
ASUS43 KLSX 140307
RWRMO

WEATHER SUMMARY FOR MISSOURI
NATIONAL WEATHER SERVICE SPRINGFIELD MO
900 PM CST SAT FEB 13 2016

NOTE: "FAIR" INDICATES FEW OR NO CLOUDS BELOW 12,000 FEET WITH NO
       SIGNIFICANT WEATHER AND/OR OBSTRUCTIONS TO VISIBILITY.
       CURRENT SKY AND/OR WEATHER CONDITIONS ARE NOT AVAILABLE FOR
       CHILLICOTHE AND FARMINGTON.

MOZ001>031-035>038-043-044-053-054-140400-
...NORTHERN AND WESTERN MISSOURI...

CITY           SKY/WX    TMP DP  RH WIND       PRES   REMARKS
KANSAS CTY INT CLOUDY    21   4  47 E14       30.26F WCI   8
KANSAS C DTWN  CLOUDY    23   3  42 E13       30.28F WCI  11
LEE`S SUMMIT   CLOUDY    22   2  42 E10       30.27F WCI  11
ST JOSEPH      CLOUDY    20   0  41 SE9       30.30F WCI   9
CHILLICOTHE      N/A     21   4  47 SE10      30.36S WCI  10
KIRKSVILLE     CLOUDY    17   6  62 E10       30.36F WCI   5

$$
MOZ066>068-077>081-088>096-101>105-140400-
...SOUTHWEST MISSOURI...

CITY           SKY/WX    TMP DP  RH WIND       PRES   REMARKS
SPRINGFIELD    CLOUDY    32  -2  23 SE22      30.20F WCI  19
JOPLIN         CLOUDY    35   7  31 E8        30.17F WCI  29

$$
MOZ032>034-039>042-045>050-055>058-069>072-140400-
...CENTRAL MISSOURI...

CITY           SKY/WX    TMP DP  RH WIND       PRES   REMARKS
COLUMBIA       CLOUDY    21   2  43 SE13      30.34F WCI   9
JEFFERSON CITY CLOUDY    23   3  42 E10       30.37F WCI  12
ROLLA          CLOUDY    22   2  42 E14       30.31F WCI   9
SEDALIA        CLOUDY    23   2  40 E16       30.30F WCI  10
WHITEMAN AFB   CLOUDY    22   3  42 E10       30.28F WCI  12
WARRENSBURG    CLOUDY    23   3  42 E13       30.30F WCI  11
OSAGE BEACH    CLOUDY    25   1  36 E10       30.31F WCI  15

$$
MOZ051-052-059>065-140400-
...EAST CENTRAL MISSOURI...

CITY           SKY/WX    TMP DP  RH WIND       PRES   REMARKS
ST LOUIS INTL  CLOUDY    23   5  46 E13       30.43F WCI  11
SPIRIT OF STL  CLOUDY    23   3  42 SE6       30.43F WCI  16
ST CHARLES     CLOUDY    22   7  52 E13       30.44F WCI  10

$$
MOZ072>076-082>087-097>100-106>115-140400-
...SOUTH CENTRAL AND SOUTHEAST MISSOURI...

CITY           SKY/WX    TMP DP  RH WIND       PRES   REMARKS
CAPE GIRARDEAU CLOUDY    26   5  40 E7        30.46S WCI  18
FARMINGTON     CLOUDY    22   5  48 SE9       30.39F WCI  12
POPLAR BLUFF   CLOUDY    27   5  39 E9        30.43F WCI  18
WEST PLAINS    CLOUDY    24   2  38 SE10      30.33F WCI  14

$$



USA.gov is the U.S. government's official web portal to all federal, state and local government web resources and services.